Temperature
5 5 5 4 4 4 3 4 5 6 6 7 8 8 7 7 6 5 5 4 4 4 4 4 4 4 4 4 4 4 4 4 4 4 4 4 5 5 5 5 6 6 6 6
4 4 4 4 5 5 4 4 4 5 5 7 7 7 6 6 5 5 4 4 4 3 3 3 3 3 3 3 3 3 3 4 4 4 4 4 4 4 5 5 5 6 6 6
4 4 4 4 5 5 5 5 5 5 6 7 7 6 6 5 5 4 4 3 3 3 3 3 3 3 3 3 3 3 3 3 3 3 3 3 3 4 4 5 5 5 5 5
3 3 3 7 6 6 5 6 6 5 6 6 5 5 4 4 4 4 3 3 3 3 3 2 3 2 2 2 2 2 3 3 3 3 3 3 3 3 4 4 4 5 5 5
3 3 4 6 5 4 4 5 5 5 5 5 4 4 4 4 3 3 3 3 3 2 2 2 2 2 2 2 2 2 2 2 2 2 2 2 3 3 3 4 4 4 4 5
2 3 4 6 5 4 4 4 5 5 4 4 4 4 5 4 3 3 3 2 2 2 2 2 2 2 2 2 1 1 1 1 2 2 2 2 2 3 3 3 4 4 4 4
2 3 4 6 4 3 4 5 5 4 4 3 3 4 3 3 2 2 2 2 2 2 2 2 1 1 1 1 1 1 1 1 1 1 1 2 2 2 3 3 3 3 4 4
2 2 3 4 3 4 5 4 4 3 3 2 2 2 2 2 2 1 1 1 1 1 1 1 1 1 1 1 1 1 1 1 1 1 1 1 2 2 2 2 3 3 3 3
3 4 5 3 3 3 3 3 3 3 2 2 1 1 1 1 1 1 1 1 1 1 1 1 1 1 0 0 0 0 0 1 1 1 1 1 1 2 2 2 2 2 3 3
2 3 4 3 3 2 2 2 2 2 1 1 1 1 1 1 1 0 0 1 1 0 0 1 1 1 0 0 0 0 0 0 0 1 1 1 1 1 1 2 2 2 2 2
2 3 3 2 2 2 2 2 1 1 1 0 0 0 -0 -0 -0 -0 -0 0 -0 -0 0 0 0 0 0 -0 0 0 0 0 0 0 1 1 1 1 1 1 1 1 2 2
2 3 3 3 2 2 1 1 0 0 -0 -0 -1 -1 -1 -1 -1 -1 -1 -1 -1 -0 -0 -0 0 -0 -0 -0 -0 -0 -0 -0 0 0 0 1 1 1 1 1 1 2 2 2
2 2 1 1 1 0 0 -0 -1 -1 -1 -1 -1 -1 -1 -1 -1 -1 -1 -1 -1 -1 -1 -0 -0 -0 -0 -1 -0 -1 -1 -0 -0 0 0 0 0 0 1 1 1 1 2 2
0 -0 -0 -0 -0 -1 -1 -1 -1 -2 -2 -2 -2 -2 -2 -2 -2 -2 -1 -1 -1 -1 -1 -1 -1 -1 -1 -1 -1 -1 -1 -1 -1 -0 -0 -0 0 0 0 0 0 1 1 1
-1 -1 -1 -2 -2 -2 -2 -2 -2 -2 -2 -2 -2 -2 -2 -2 -2 -2 -2 -2 -2 -1 -1 -1 -1 -1 -1 -1 -1 -1 -1 -1 -1 -1 -1 -0 -0 -0 -0 -0 -0 -0 0 1
-2 -2 -2 -3 -3 -3 -3 -3 -3 -3 -3 -3 -3 -3 -3 -3 -3 -2 -2 -2 -2 -2 -2 -2 -2 -2 -2 -2 -2 -2 -2 -1 -1 -1 -1 -1 -1 -1 -1 -1 -1 -1 -1 -0
-3 -3 -3 -3 -3 -3 -4 -4 -4 -4 -4 -4 -4 -4 -4 -3 -3 -3 -3 -2 -2 -2 -2 -2 -2 -2 -2 -2 -2 -2 -2 -2 -2 -2 -2 -1 -1 -1 -1 -1 -1 -1 -1 -1
-4 -3 -3 -3 -4 -4 -4 -4 -4 -4 -4 -4 -4 -4 -4 -4 -4 -3 -3 -3 -3 -3 -3 -3 -3 -3 -3 -3 -3 -3 -3 -3 -2 -2 -2 -2 -2 -2 -2 -2 -2 -2 -2 -1
-4 -4 -4 -4 -4 -4 -4 -4 -4 -4 -4 -4 -4 -5 -4 -4 -4 -4 -4 -4 -4 -4 -3 -3 -4 -4 -4 -4 -3 -3 -3 -3 -3 -3 -3 -3 -2 -2 -2 -2 -2 -2 -2 -2
-4 -4 -4 -4 -4 -5 -5 -5 -5 -5 -5 -5 -5 -5 -5 -5 -5 -5 -5 -4 -4 -4 -4 -4 -4 -4 -4 -4 -4 -4 -4 -4 -4 -4 -3 -3 -3 -3 -3 -3 -3 -3 -2 -2
-5 -5 -5 -5 -5 -5 -5 -5 -5 -5 -5 -5 -5 -6 -6 -5 -6 -5 -5 -5 -5 -5 -5 -5 -5 -5 -5 -5 -4 -4 -4 -4 -4 -4 -4 -4 -3 -3 -3 -3 -3 -3 -3 -2
-5 -5 -5 -6 -6 -6 -6 -6 -6 -6 -6 -6 -6 -6 -6 -6 -6 -6 -6 -6 -6 -6 -5 -5 -5 -5 -5 -5 -5 -5 -5 -5 -5 -4 -4 -4 -4 -4 -4 -4 -3 -3 -3 -3
-6 -6 -6 -6 -6 -6 -6 -6 -6 -6 -7 -7 -7 -7 -7 -7 -7 -7 -7 -6 -6 -6 -6 -6 -6 -6 -6 -6 -5 -5 -5 -5 -5 -5 -5 -5 -5 -4 -4 -4 -4 -4 -3 -3
-6 -6 -6 -7 -7 -7 -7 -7 -7 -7 -7 -7 -7 -7 -7 -7 -7 -7 -7 -7 -7 -7 -7 -6 -6 -6 -6 -6 -6 -6 -6 -6 -6 -5 -5 -5 -5 -5 -5 -4 -4 -4 -4 -3
-7 -7 -7 -7 -7 -7 -7 -7 -7 -8 -8 -7 -7 -7 -7 -7 -7 -7 -7 -7 -7 -7 -7 -7 -6 -6 -6 -6 -6 -6 -6 -6 -6 -6 -6 -6 -5 -5 -5 -5 -5 -4 -4 -4
-7 -7 -8 -8 -8 -8 -8 -8 -8 -8 -8 -8 -8 -8 -8 -8 -7 -7 -7 -7 -7 -7 -7 -7 -7 -7 -7 -6 -6 -6 -6 -6 -6 -6 -6 -6 -6 -6 -5 -5 -5 -5 -4 -4
-8 -8 -8 -8 -8 -8 -9 -9 -9 -9 -9 -9 -8 -8 -8 -8 -8 -8 -8 -8 -7 -7 -7 -7 -7 -7 -7 -7 -7 -7 -7 -6 -6 -6 -6 -6 -6 -6 -5 -5 -5 -5 -4 -4
Wind_Speed
14 13 11 13 14 13 16 16 15 19 21 22 21 19 17 15 13 12 11 11 10 9 8 8 8 7 7 7 6 6 6 6 6 6 6 6 6 6 7 7 7 8 8 9
12 13 13 16 18 19 19 19 21 23 24 21 19 15 14 13 11 11 11 11 10 9 9 9 9 7 7 7 6 6 7 6 7 6 6 6 6 6 6 6 6 6 7 7
10 9 9 13 14 16 14 14 15 18 18 17 15 14 13 12 11 11 11 11 10 9 9 9 8 6 6 6 6 7 6 7 6 6 6 6 6 6 6 6 4 5 5 6
7 6 11 8 3 8 12 14 14 15 16 15 15 14 12 10 10 10 10 10 9 9 9 8 7 6 6 5 6 6 6 6 6 6 6 6 6 6 6 5 3 4 4 4
5 9 13 10 6 5 7 10 10 12 13 13 10 9 9 8 8 9 10 9 9 8 8 8 7 6 5 6 5 5 5 6 6 5 6 6 6 7 6 4 3 3 3 3
7 8 10 7 2 2 4 8 5 7 8 8 8 8 9 9 10 10 9 8 8 8 8 8 7 6 5 6 6 6 6 6 6 5 6 6 7 7 5 3 3 2 2 2
13 12 10 6 2 4 6 5 1 3 6 7 8 9 11 12 11 11 9 8 8 7 7 7 7 5 5 6 7 7 6 6 6 5 6 6 6 6 4 3 2 2 2 2
8 10 10 3 5 6 6 5 5 7 8 9 11 13 13 12 12 11 10 9 8 7 7 7 6 5 6 7 7 6 6 6 6 6 5 5 5 4 3 2 2 1 0 1
8 9 6 5 8 8 8 9 10 10 11 11 12 13 13 12 12 11 10 10 9 8 8 8 6 5 6 7 6 5 5 6 6 6 5 4 4 4 3 2 1 1 0 0
9 12 12 12 12 12 12 12 12 11 11 11 12 14 14 13 12 11 10 9 9 8 8 8 7 6 7 6 5 5 5 6 5 5 5 4 3 3 2 1 1 1 1 1
14 14 13 14 13 13 11 11 11 11 11 12 12 13 13 12 12 10 10 9 8 8 8 9 8 7 6 5 5 5 5 5 5 4 4 4 3 3 2 2 2 2 2 2
14 13 12 13 11 11 11 11 11 12 12 11 11 12 12 12 11 10 10 9 8 8 8 8 7 7 6 5 5 4 5 5 4 4 3 2 2 2 2 2 3 3 3 3
15 13 12 13 11 10 11 11 10 10 10 11 10 10 10 11 10 10 9 9 9 9 8 8 7 6 6 5 4 5 5 5 4 3 3 2 1 1 2 3 4 3 3 4
11 10 12 11 9 8 8 8 8 8 9 9 9 9 9 10 10 10 9 9 8 8 8 7 6 6 5 4 4 4 4 4 4 3 2 2 1 1 1 1 2 3 3 3
8 8 8 7 7 6 6 6 7 7 8 8 8 8 9 9 9 9 9 8 7 7 6 6 6 6 5 4 4 4 3 3 3 3 2 1 1 1 1 1 1 2 3 3
6 6 6 6 6 6 6 6 7 8 8 8 8 8 8 8 9 9 8 6 6 6 6 5 6 5 4 3 3 3 3 3 3 2 1 1 0 1 0 1 1 2 2 2
4 5 5 6 6 6 6 6 6 7 7 8 8 8 7 7 7 7 6 6 6 6 5 5 5 4 3 3 3 2 2 2 3 2 1 1 0 1 1 0 1 1 2 2
5 5 5 5 5 6 6 6 6 6 7 7 7 6 6 6 6 7 6 5 4 4 4 4 3 3 3 3 2 2 2 2 1 1 1 1 1 1 1 1 1 1 2 2
3 4 4 4 4 4 5 5 6 6 6 6 6 6 6 6 6 6 5 4 4 5 4 3 3 3 2 3 2 1 1 1 1 1 1 1 1 1 1 1 1 1 1 1
3 3 3 3 3 3 4 5 5 5 6 6 6 6 5 6 5 5 4 4 4 4 4 4 4 3 3 2 2 1 1 1 1 1 1 1 1 1 1 1 1 1 1 1
3 3 2 3 3 4 4 5 5 6 6 5 5 5 6 6 5 4 4 4 5 4 4 4 3 2 2 2 2 1 1 1 1 1 1 1 1 1 1 1 1 1 1 1
3 3 3 3 4 4 4 4 5 5 6 5 5 5 5 5 5 4 4 4 4 5 4 3 2 3 3 2 1 1 1 1 1 1 1 1 1 1 1 2 2 2 1 1
3 3 4 4 4 5 5 5 5 5 5 6 5 5 5 5 4 4 4 3 3 5 4 3 3 4 4 2 1 2 2 1 2 2 2 2 2 2 2 2 2 2 1 1
4 4 4 4 4 4 5 5 5 5 5 6 5 5 5 4 4 4 4 5 6 6 4 4 5 5 4 2 2 2 2 2 2 2 2 2 2 2 2 2 2 1 1 0
4 4 4 4 4 4 5 5 5 5 5 4 5 5 4 4 4 4 4 4 5 5 4 4 5 4 3 2 2 2 2 2 3 2 3 2 2 2 2 2 1 1 1 1
4 4 4 4 4 4 4 4 4 4 4 5 5 4 4 4 4 4 4 4 4 5 4 3 3 3 2 2 2 2 2 3 3 3 3 3 3 2 2 1 1 1 1 1
4 4 4 4 4 4 4 4 4 5 4 5 5 5 5 4 4 3 4 3 3 3 3 2 2 2 2 2 2 2 3 3 3 3 2 2 2 2 2 2 2 1 1 2
Wind_Direction
260 270 266 261 259 242 231 239 252 267 274 282 291 301 306 307 310 313 315 316 317 315 315 317 318 314 315 313 312 309 305 303 298 291 294 297 297 292 285 272 261 249 239 230
266 264 262 267 262 254 249 249 253 264 272 279 291 298 299 304 309 310 313 315 316 315 315 315 314 311 313 310 311 310 302 303 305 298 299 302 301 299 296 288 267 247 238 230
267 276 277 266 257 250 244 242 249 258 269 288 295 298 300 307 308 305 309 313 311 310 312 311 308 304 305 304 307 307 307 306 307 310 307 305 306 306 307 297 280 262 245 234
263 268 252 265 269 254 253 256 250 259 274 286 293 300 299 300 299 303 308 307 306 309 311 312 308 302 301 299 297 301 303 304 309 312 310 309 308 307 307 298 278 269 256 245
239 253 266 272 252 230 242 264 260 261 275 290 301 301 294 307 311 308 307 303 302 304 307 311 309 302 300 295 297 301 303 303 304 306 308 311 308 306 307 295 281 276 257 248
235 249 258 272 250 224 245 267 269 263 279 294 304 299 307 326 323 316 311 305 305 307 306 305 305 301 297 301 303 299 297 298 301 303 303 303 307 310 307 288 283 286 277 259
238 249 261 272 176 168 233 277 307 279 291 294 291 293 302 308 312 313 309 306 304 301 298 299 302 298 296 299 296 296 298 300 304 306 301 299 306 309 304 298 289 283 290 285
229 240 252 182 165 217 266 303 286 285 287 290 292 296 298 302 307 308 307 303 300 297 298 301 299 291 289 290 293 297 298 299 303 308 309 309 308 308 304 299 277 284 345 351
225 243 281 228 241 259 275 279 283 283 286 288 289 293 297 300 303 303 301 299 299 295 295 298 295 287 285 289 293 295 297 299 303 309 310 307 306 309 309 307 301 296 336 317
255 261 270 269 268 272 272 273 278 280 286 287 287 291 294 296 296 297 296 295 295 292 290 295 297 290 284 288 289 288 292 297 301 302 306 310 311 304 297 297 314 325 305 290
260 271 279 272 271 274 278 279 280 282 284 284 286 289 291 291 291 292 292 292 290 287 287 290 295 292 289 286 285 288 291 295 298 297 300 311 311 302 285 273 275 269 270 266
260 267 269 276 279 279 279 279 281 284 285 285 285 285 288 287 288 288 287 289 289 287 286 288 291 291 292 288 281 283 289 292 293 292 295 304 308 324 345 313 320 310 311 305
263 276 274 278 282 281 279 281 283 280 281 285 287 285 286 286 288 287 285 284 284 284 285 286 286 288 292 292 283 277 279 284 288 285 288 296 302 335 352 1 7 7 2 348
266 270 271 274 280 285 285 286 286 284 284 284 286 287 286 286 286 285 283 284 285 285 284 284 285 287 293 291 283 281 284 287 289 283 283 280 288 309 327 360 349 353 2 2
263 261 266 281 286 289 293 294 294 293 296 295 292 289 287 286 285 285 288 289 286 282 280 281 283 287 296 289 280 282 286 289 290 291 290 291 306 337 9 28 355 344 351 8
273 268 266 270 277 288 297 297 294 296 299 298 298 295 291 287 287 290 293 290 284 281 282 282 281 288 293 284 279 281 282 290 294 291 291 305 320 341 358 12 339 330 332 338
263 269 274 278 281 287 291 292 290 293 297 297 299 301 300 298 297 298 302 302 293 288 285 281 285 295 291 281 274 277 283 288 291 295 293 280 278 276 256 257 308 320 320 328
253 262 264 271 275 283 291 298 298 299 299 302 306 305 304 301 300 304 309 313 311 306 299 296 302 306 300 295 288 280 280 289 300 296 284 271 278 273 242 251 299 315 328 341
271 274 281 284 286 285 287 294 300 303 305 306 304 301 301 300 300 304 308 308 303 304 309 315 317 316 307 304 301 281 279 288 310 310 296 296 299 282 245 271 297 310 321 327
306 298 292 296 302 296 295 301 305 306 308 306 304 304 307 309 309 308 306 299 292 291 297 303 306 307 305 299 298 281 265 267 279 285 283 276 283 277 270 286 294 302 307 310
315 312 305 304 306 306 303 304 305 306 310 310 304 301 303 308 310 306 302 303 308 313 307 302 304 304 308 307 296 276 258 261 265 270 267 274 286 273 273 288 293 290 292 298
308 304 304 304 305 309 313 311 305 305 309 308 305 302 303 306 309 306 295 286 296 310 314 305 301 298 304 303 286 276 270 262 262 265 263 263 269 265 269 282 287 287 284 286
301 300 299 301 302 304 309 310 308 306 304 304 304 303 300 299 299 297 301 304 304 309 311 297 293 294 296 292 273 266 263 261 264 268 269 265 266 262 262 272 278 279 276 277
307 307 305 306 304 301 305 311 311 306 300 299 297 294 292 294 297 289 282 292 302 305 303 300 301 299 294 284 266 258 259 260 262 265 266 264 264 258 256 261 267 270 256 225
304 301 300 301 300 297 300 306 309 307 305 303 303 300 291 282 280 292 295 294 298 303 302 299 302 306 302 282 266 263 264 261 262 262 259 263 264 256 253 254 249 240 212 188
298 296 293 287 285 289 295 299 300 302 305 306 309 308 305 299 290 289 293 296 297 300 300 300 301 300 294 282 272 269 267 269 271 267 261 262 264 255 246 243 236 223 202 186
298 297 296 299 300 297 296 294 293 295 297 298 301 303 302 300 297 297 294 292 296 297 294 294 292 288 279 270 266 267 268 267 264 262 260 255 255 246 233 219 204 196 188 184
Height
1443 1442 1443 1442 1441 1442 1443 1435 1430 1417 1413 1407 1406 1405 1403 1401 1399 1397 1395 1392 1389 1386 1384 1382 1380 1378 1376 1375 1373 1372 1370 1368 1366 1365 1364 1362 1360 1359 1358 1357 1357 1357 1358 1360
1441 1438 1438 1436 1431 1430 1430 1428 1425 1420 1412 1406 1405 1404 1401 1399 1397 1395 1392 1390 1387 1384 1382 1379 1377 1376 1374 1372 1371 1369 1367 1364 1363 1362 1359 1357 1355 1354 1352 1352 1351 1352 1353 1354
1432 1432 1434 1426 1417 1418 1417 1416 1416 1411 1405 1402 1401 1400 1398 1397 1395 1393 1390 1388 1385 1382 1380 1378 1376 1374 1371 1370 1368 1366 1363 1362 1360 1358 1355 1353 1351 1349 1347 1346 1347 1347 1349 1350
1434 1434 1430 1408 1411 1411 1410 1408 1409 1407 1403 1402 1401 1398 1396 1396 1393 1390 1388 1385 1383 1380 1378 1375 1373 1371 1369 1368 1366 1363 1361 1359 1357 1354 1352 1350 1348 1345 1344 1343 1343 1343 1344 1345
1431 1425 1412 1406 1408 1411 1409 1405 1404 1403 1401 1400 1399 1396 1392 1392 1390 1388 1386 1383 1381 1378 1375 1372 1370 1369 1367 1365 1363 1360 1358 1356 1354 1351 1349 1346 1344 1342 1340 1340 1339 1340 1340 1341
1427 1422 1411 1400 1405 1407 1408 1402 1401 1401 1400 1399 1398 1393 1389 1389 1388 1386 1383 1381 1378 1375 1372 1370 1368 1366 1364 1361 1359 1358 1356 1353 1351 1349 1346 1343 1341 1339 1338 1337 1337 1337 1337 1337
1421 1416 1405 1401 1405 1407 1406 1398 1399 1400 1399 1398 1396 1394 1392 1388 1386 1383 1381 1378 1375 1373 1370 1368 1366 1363 1361 1359 1357 1355 1353 1350 1348 1346 1344 1341 1339 1338 1337 1336 1335 1335 1335 1335
1415 1413 1405 1401 1404 1403 1398 1398 1398 1398 1397 1396 1394 1391 1388 1386 1383 1380 1377 1375 1373 1370 1367 1365 1363 1361 1358 1356 1354 1352 1350 1347 1345 1343 1341 1339 1337 1336 1335 1334 1334 1333 1333 1333
1406 1401 1397 1398 1398 1397 1396 1396 1395 1394 1393 1392 1389 1387 1384 1382 1379 1376 1374 1371 1369 1366 1363 1361 1360 1358 1355 1354 1351 1349 1346 1344 1342 1340 1339 1337 1335 1334 1333 1333 1332 1332 1332 1332
1402 1396 1395 1395 1394 1394 1393 1392 1391 1391 1389 1388 1386 1383 1380 1378 1375 1372 1370 1367 1365 1363 1360 1358 1356 1354 1352 1351 1349 1346 1343 1341 1340 1338 1336 1335 1333 1333 1332 1332 1331 1331 1331 1331
1396 1393 1392 1390 1390 1389 1388 1388 1387 1386 1385 1383 1381 1378 1376 1373 1370 1368 1365 1363 1361 1359 1356 1354 1353 1351 1349 1348 1345 1343 1341 1339 1337 1336 1334 1333 1332 1332 1332 1332 1332 1331 1331 1331
1387 1387 1387 1385 1385 1385 1384 1383 1382 1381 1379 1377 1376 1373 1371 1368 1366 1363 1361 1359 1356 1354 1353 1351 1349 1347 1346 1344 1343 1340 1338 1337 1335 1333 1332 1331 1330 1330 1330 1330 1330 1330 1329 1329
1383 1382 1382 1381 1380 1380 1379 1378 1377 1375 1374 1372 1370 1369 1366 1364 1361 1359 1356 1354 1352 1350 1349 1347 1345 1344 1343 1341 1339 1338 1336 1334 1333 1331 1330 1329 1329 1328 1328 1328 1328 1328 1328 1328
1379 1379 1377 1376 1376 1375 1374 1373 1371 1370 1369 1367 1365 1363 1361 1359 1356 1354 1352 1350 1348 1346 1345 1343 1342 1340 1339 1337 1336 1334 1333 1332 1331 1330 1329 1329 1328 1328 1328 1327 1327 1326 1327 1327
1374 1374 1374 1372 1372 1371 1370 1368 1367 1365 1364 1362 1360 1358 1356 1354 1352 1349 1348 1346 1344 1342 1341 1340 1338 1337 1336 1335 1333 1332 1331 1330 1329 1328 1328 1328 1327 1327 1327 1327 1327 1326 1326 1326
1370 1370 1369 1369 1368 1367 1366 1365 1363 1361 1360 1358 1356 1354 1352 1349 1347 1345 1343 1342 1340 1338 1337 1336 1335 1334 1333 1332 1331 1330 1329 1328 1327 1327 1326 1326 1326 1326 1326 1326 1326 1325 1325 1325
1367 1366 1366 1365 1364 1363 1362 1361 1360 1358 1356 1354 1352 1350 1348 1345 1343 1341 1340 1338 1337 1335 1334 1333 1332 1331 1330 1329 1329 1327 1326 1326 1325 1325 1325 1325 1325 1325 1326 1325 1325 1325 1324 1325
1364 1364 1363 1362 1361 1360 1359 1358 1356 1355 1353 1351 1349 1346 1344 1342 1340 1338 1336 1335 1333 1332 1331 1330 1329 1328 1327 1327 1326 1325 1325 1324 1324 1324 1324 1324 1324 1324 1324 1324 1324 1324 1323 1324
1361 1361 1360 1360 1359 1358 1356 1355 1353 1352 1350 1348 1345 1343 1341 1339 1337 1335 1333 1332 1330 1329 1328 1327 1326 1326 1325 1324 1324 1323 1323 1323 1322 1322 1322 1322 1322 1322 1322 1323 1323 1323 1323 1323
1359 1358 1357 1357 1356 1355 1353 1352 1350 1348 1346 1344 1342 1340 1338 1336 1334 1332 1331 1329 1328 1327 1326 1325 1324 1323 1323 1322 1322 1322 1321 1321 1321 1321 1321 1320 1320 1320 1321 1321 1321 1321 1322 1322
1357 1356 1355 1354 1353 1352 1351 1349 1347 1345 1343 1341 1339 1337 1335 1333 1331 1329 1328 1326 1325 1325 1324 1323 1322 1321 1321 1321 1320 1320 1320 1319 1319 1319 1319 1319 1319 1319 1319 1320 1320 1320 1320 1321
1355 1354 1353 1352 1351 1349 1348 1346 1344 1342 1340 1338 1336 1334 1332 1330 1328 1327 1325 1324 1323 1323 1322 1321 1320 1320 1319 1319 1318 1318 1318 1318 1318 1318 1318 1318 1318 1318 1318 1318 1319 1319 1319 1320
1353 1352 1351 1349 1348 1346 1344 1343 1341 1339 1337 1335 1333 1331 1329 1327 1326 1324 1323 1322 1321 1320 1320 1319 1319 1318 1317 1317 1317 1316 1316 1316 1316 1316 1317 1317 1316 1316 1317 1317 1318 1318 1318 1319
1351 1350 1348 1347 1345 1343 1341 1340 1338 1336 1334 1332 1330 1328 1327 1325 1323 1322 1321 1320 1319 1318 1318 1317 1317 1316 1316 1315 1315 1315 1315 1314 1314 1315 1315 1315 1315 1315 1315 1316 1316 1317 1317 1318
1349 1347 1346 1344 1342 1340 1338 1336 1335 1333 1331 1329 1327 1326 1324 1322 1321 1319 1318 1317 1316 1316 1315 1315 1314 1314 1314 1313 1313 1313 1313 1313 1313 1313 1313 1313 1313 1314 1314 1314 1315 1315 1316 1317
1346 1345 1343 1341 1340 1338 1336 1334 1332 1330 1328 1326 1324 1323 1321 1320 1318 1317 1316 1315 1314 1313 1313 1312 1312 1312 1312 1311 1311 1311 1311 1311 1311 1311 1311 1311 1312 1312 1312 1313 1313 1314 1315 1316
1344 1342 1340 1338 1337 1335 1333 1331 1330 1328 1326 1324 1322 1320 1318 1317 1316 1315 1314 1313 1312 1311 1311 1311 1310 1310 1310 1309 1309 1309 1309 1309 1309 1309 1309 1310 1310 1310 1310 1311 1312 1313 1314 1315